Flag for Germany Weather past 2 weeks in Fehmarn (Puttgarden), Schleswig-Holstein, Germany

Now
52 °F

Scattered clouds.


Feels Like: 50 °F
Forecast: 50 / 54 °F
Wind: 7 mph from Southwest

Location: Westermarkelsdorf

Current Time: May 29, 2015 at 9:28:30 AM

Latest Report: May 29, 2015 at 9:00 AM


Visibility: 12 mi

Pressure: 29.87 "Hg

Humidity: 74%

Dew point: 44 °F

Location of Fehmarn (Puttgarden)Location

Historic Weather in Fehmarn (Puttgarden) — Graph

°F

Fehmarn (Puttgarden) temperature yesterday

Maximum temperature yesterday: 59 °F (at 12:00 PM)
Minimum temperature yesterday: 47 °F (at 12:00 AM)
Average temperature yesterday: 53 °F

Past Weeks' High & Low Weather Summary

 TemperatureHumidityPressure
High62 °F (May 22, 5:00 PM)100% (May 25, 3:00 AM)30.28 "Hg (May 25, 3:00 AM)
Low44 °F (May 20, 4:00 AM)58% (May 15, 6:00 PM)29.55 "Hg (May 19, 3:00 AM)
Average52 °F79%29.99 "Hg
* Reported May 14 8:00 AM — May 29 8:00 AM, Fehmarn (Puttgarden), Weather by CustomWeather, © 2015

Note: Actual official high and low records may vary slightly from our data, if they occured in-between our weather recording intervals... More about our weather records

Advertising

Fehmarn (Puttgarden) weather history for previous 24 hours

 ConditionsComfort  
Time TempWeatherWind HumidityBarometerVisibility
8:00 AM
Fri, May 29
51 °FPassing clouds.6 mph77%29.86 "Hg22 mi
7:00 AM49 °FPassing clouds.5 mph82%29.86 "Hg17 mi
6:00 AM48 °FPassing clouds.6 mph86%29.86 "Hg22 mi
4:00 AM49 °FClear.8 mph83%29.86 "Hg17 mi
3:00 AM49 °FClear.9 mph83%29.87 "Hg17 mi
2:00 AM50 °FPassing clouds.9 mph82%29.86 "Hg19 mi
1:00 AM51 °FOvercast.9 mph80%29.86 "Hg22 mi
10:00 PM
Thu, May 28
53 °FOvercast.12 mph72%29.83 "Hg22 mi
9:00 PM54 °FSunny.12 mph71%29.82 "Hg25 mi
8:00 PM55 °FPassing clouds.12 mph71%29.81 "Hg10 mi
7:00 PM56 °FPassing clouds.12 mph70%29.80 "Hg6 mi
6:00 PM57 °FOvercast.9 mph71%29.80 "Hg13 mi
4:00 PM54 °FOvercast.8 mph88%29.80 "Hg12 mi
3:00 PM53 °FLight rain. Overcast.9 mph92%29.80 "Hg5 mi
2:00 PM58 °FOvercast.8 mph77%29.79 "Hg6 mi
1:00 PM57 °FOvercast.8 mph75%29.78 "Hg5 mi
12:00 PM59 °FPartly sunny.8 mph68%29.78 "Hg6 mi
10:00 AM55 °FOvercast.6 mph71%29.81 "Hg11 mi
9:00 AM53 °FOvercast.6 mph70%29.82 "Hg12 mi
Weather by CustomWeather, © 2015

See weather overviewHow to use our weather pages